sat.trackr.live / text

‹ back to catalog

STARLINK-35016

NORAD 65341 · 2025-189U

PAYLOAD ACTIVE UNKNOWN

§ Identity

Operator
Country
US
Launch date
2025-08-27
Launch site
AFETR
Launch vehicle
Mass (kg)
RCS (m²)

Purposes: comms

External: N2YO · Heavens-Above · Gunter

§ Orbital elements

Epoch: 2026-09-20T14:27:26.225568Z

Period
93.85 min
Inclination
53.1602°
Eccentricity
0.0001348
Mean motion
15.34397353 rev/d
Perigee alt
461.8 km
Apogee alt
463.6 km
Semi-major
6,840.8 km
B*
6.4618e-4
RAAN
18.9180°
Arg perigee
77.1909°
Mean anomaly
282.9244°
Rev number
6,093

§ Raw data

STARLINK-350161 65341U 25189U   26263.60238687  .00021517  00000+0  64618-3 0  99962 65341  53.1602  18.9180 0001348  77.1909 282.9244 15.34397353 60936

JSON: /api/v1/satellites/65341 · /tle

For live sub-satellite position, see the globe view (requires WebGL).

§ Visibility from observer

Set your observer location to see the next 7 days of passes ≥ 10°. The values pass through the URL so the page stays shareable.

No JS? Fill the form by hand. The geolocation button needs JavaScript.